User: anonymous   Login
Location: Newark
(49.8969°N, 3.3422°E)
Time: 13:14:38
(UTC+00:00)
Language:

A-11 Canister half - Orbit

View from above orbital plane
View from above orbital plane
View from above satellite
View from above satellite

Ground track
Ground track

The orbit data is extracted from the following two-line orbital elements,

1    51U 60009C   20027.56556073 -.00000106 +00000-0 -19536-3 0  9995
2    51 047.2138 066.3810 0104279 102.4129 258.8352 12.18270950646799
Epoch (UTC): 27 January 2020 13:34:24
Eccentricity: 0.0104279
inclination: 47.2138°
perigee height: 1517 km
apogee height: 1683 km
right ascension of ascending node: 66.3810°
argument of perigee: 102.4129°
revolutions per day: 12.18270950
mean anomaly at epoch: 258.8352°
orbit number at epoch: 64679

The dashed part of the orbit path shows where the satellite is in the earth's shadow,  

DLR